Time,TemperatureF,DewpointF,PressureIn,WindDirection,WindDirectionDegrees,WindSpeedMPH,WindSpeedGustMPH,Humidity,HourlyPrecipIn,Conditions,Clouds,dailyrainin,SoftwareType,DateUTC
2013-03-02 00:01:00,48.0,47.0,30.32,SSE,153,0.0,0.0,98,0.00,,,0.06,,2013-03-02 08:01:00,
2013-03-02 00:11:00,48.0,47.0,30.32,SSE,153,0.0,0.0,98,0.00,,,0.06,,2013-03-02 08:11:00,
2013-03-02 00:21:00,48.0,47.0,30.31,SSE,165,0.0,0.0,98,0.00,,,0.06,,2013-03-02 08:21:00,
2013-03-02 00:32:00,48.0,47.0,30.31,SSE,165,0.0,0.0,98,0.00,,,0.06,,2013-03-02 08:32:00,
2013-03-02 00:42:00,48.0,47.0,30.31,SSE,165,0.0,0.0,98,0.00,,,0.06,,2013-03-02 08:42:00,
2013-03-02 00:52:00,47.0,46.0,30.32,SSE,164,0.0,0.0,98,0.00,,,0.05,,2013-03-02 08:52:00,
2013-03-02 01:01:00,47.0,46.0,30.30,SSE,164,0.0,0.0,98,0.00,,,0.05,,2013-03-02 09:01:00,
2013-03-02 01:11:00,47.0,46.0,30.30,SSE,164,0.0,0.0,98,0.00,,,0.05,,2013-03-02 09:11:00,
2013-03-02 01:21:00,46.0,45.0,30.31,SSE,164,0.0,0.0,98,0.00,,,0.05,,2013-03-02 09:21:00,
2013-03-02 01:31:00,46.0,45.0,30.32,SSE,164,0.0,0.0,98,0.00,,,0.03,,2013-03-02 09:31:00,
2013-03-02 01:42:00,46.0,45.0,30.32,SSE,164,0.0,0.0,98,0.00,,,0.03,,2013-03-02 09:42:00,
2013-03-02 01:51:00,45.0,44.0,30.30,SSE,164,0.0,0.0,98,0.00,,,0.03,,2013-03-02 09:51:00,
2013-03-02 02:01:00,45.0,45.0,30.30,SSE,165,0.0,0.0,99,0.00,,,0.03,,2013-03-02 10:01:00,
2013-03-02 02:15:00,45.0,45.0,30.30,SSE,165,0.0,0.0,99,0.00,,,0.03,,2013-03-02 10:15:00,
2013-03-02 02:21:00,45.0,45.0,30.30,SSE,165,0.0,0.0,99,0.00,,,0.03,,2013-03-02 10:21:00,
2013-03-02 02:31:00,45.0,45.0,30.30,SSE,165,0.0,0.0,99,0.00,,,0.02,,2013-03-02 10:31:00,
2013-03-02 02:42:00,45.0,45.0,30.30,SSE,165,0.0,0.0,99,0.00,,,0.02,,2013-03-02 10:42:00,
2013-03-02 02:51:00,45.0,45.0,30.29,SSE,164,0.0,0.0,99,0.00,,,0.02,,2013-03-02 10:51:00,
2013-03-02 03:01:00,45.0,45.0,30.29,SSE,165,0.0,0.0,99,0.00,,,0.02,,2013-03-02 11:01:00,
2013-03-02 03:11:00,45.0,45.0,30.29,SSE,165,0.0,0.0,99,0.00,,,0.02,,2013-03-02 11:11:00,
2013-03-02 03:21:00,45.0,45.0,30.28,SSE,165,0.0,0.0,99,0.00,,,0.02,,2013-03-02 11:21:00,
2013-03-02 03:31:00,45.0,45.0,30.27,SSE,165,0.0,0.0,99,0.00,,,0.01,,2013-03-02 11:31:00,
2013-03-02 03:41:00,45.0,45.0,30.27,SSE,165,0.0,0.0,99,0.00,,,0.01,,2013-03-02 11:41:00,
2013-03-02 03:52:00,45.0,45.0,30.26,SSE,164,0.0,0.0,99,0.00,,,0.01,,2013-03-02 11:52:00,
2013-03-02 04:02:00,45.0,45.0,30.26,SSE,165,0.0,0.0,99,0.00,,,0.01,,2013-03-02 12:02:00,
2013-03-02 04:11:00,45.0,45.0,30.26,SSE,165,0.0,0.0,99,0.00,,,0.01,,2013-03-02 12:11:00,
2013-03-02 04:21:00,45.0,45.0,30.26,SSE,165,0.0,0.0,99,0.00,,,0.01,,2013-03-02 12:21:00,
2013-03-02 04:32:00,45.0,45.0,30.25,SSE,164,0.0,0.0,99,0.00,,,0.01,,2013-03-02 12:32:00,
2013-03-02 04:43:00,45.0,45.0,30.25,SSE,164,0.0,0.0,99,0.00,,,0.01,,2013-03-02 12:43:00,
2013-03-02 04:53:00,45.0,45.0,30.25,SSE,165,0.0,0.0,99,0.00,,,0.01,,2013-03-02 12:53:00,
2013-03-02 05:01:00,45.0,45.0,30.24,SSE,165,0.0,0.0,99,0.00,,,0.01,,2013-03-02 13:01:00,
2013-03-02 05:11:00,45.0,45.0,30.24,SSE,165,0.0,0.0,99,0.00,,,0.01,,2013-03-02 13:11:00,
2013-03-02 05:21:00,44.0,44.0,30.24,SSE,165,0.0,0.0,99,0.00,,,0.01,,2013-03-02 13:21:00,
2013-03-02 05:31:00,44.0,44.0,30.24,SSE,165,0.0,0.0,99,0.00,,,0.01,,2013-03-02 13:31:00,
2013-03-02 05:41:00,44.0,44.0,30.24,SSE,165,0.0,0.0,99,0.00,,,0.01,,2013-03-02 13:41:00,
2013-03-02 05:52:00,44.0,44.0,30.24,SSE,165,0.0,0.0,99,0.00,,,0.01,,2013-03-02 13:52:00,
2013-03-02 06:01:00,44.0,44.0,30.24,SSE,165,0.0,0.0,99,0.00,,,0.01,,2013-03-02 14:01:00,
2013-03-02 06:11:00,44.0,44.0,30.24,SSE,165,0.0,0.0,99,0.00,,,0.01,,2013-03-02 14:11:00,
2013-03-02 06:21:00,44.0,44.0,30.24,SSE,165,0.0,0.0,99,0.00,,,0.01,,2013-03-02 14:21:00,
2013-03-02 06:32:00,44.0,44.0,30.23,SSE,165,0.0,0.0,99,0.00,,,0.01,,2013-03-02 14:32:00,
2013-03-02 06:42:00,44.0,44.0,30.23,SSE,165,0.0,0.0,99,0.00,,,0.01,,2013-03-02 14:42:00,
2013-03-02 06:52:00,44.0,44.0,30.23,SSE,165,0.0,0.0,99,0.00,,,0.01,,2013-03-02 14:52:00,
2013-03-02 07:01:00,44.0,44.0,30.23,SSE,165,0.0,0.0,99,0.00,,,0.01,,2013-03-02 15:01:00,
2013-03-02 07:11:00,44.0,44.0,30.23,SSE,165,0.0,0.0,99,0.00,,,0.01,,2013-03-02 15:11:00,
2013-03-02 07:21:00,44.0,44.0,30.23,SSE,165,0.0,0.0,99,0.00,,,0.01,,2013-03-02 15:21:00,
2013-03-02 07:31:00,45.0,45.0,30.23,ESE,113,0.0,0.0,99,0.00,,,0.01,,2013-03-02 15:31:00,
2013-03-02 07:41:00,45.0,45.0,30.23,ESE,113,0.0,0.0,99,0.00,,,0.01,,2013-03-02 15:41:00,
2013-03-02 07:51:00,45.0,45.0,30.23,ESE,113,0.0,0.0,99,0.00,,,0.01,,2013-03-02 15:51:00,
2013-03-02 08:01:00,45.0,45.0,30.22,ESE,112,0.0,0.0,99,0.00,,,0.01,,2013-03-02 16:01:00,
2013-03-02 08:11:00,45.0,45.0,30.22,ESE,112,0.0,0.0,99,0.00,,,0.01,,2013-03-02 16:11:00,
2013-03-02 08:21:00,45.0,45.0,30.22,ESE,112,0.0,0.0,99,0.00,,,0.01,,2013-03-02 16:21:00,
2013-03-02 08:31:00,45.0,45.0,30.22,ESE,112,0.0,0.0,99,0.00,,,0.00,,2013-03-02 16:31:00,
2013-03-02 08:41:00,45.0,45.0,30.22,ESE,112,0.0,0.0,99,0.00,,,0.00,,2013-03-02 16:41:00,
2013-03-02 08:51:00,45.0,45.0,30.22,ESE,113,0.0,0.0,99,0.00,,,0.00,,2013-03-02 16:51:00,
2013-03-02 09:01:00,45.0,45.0,30.22,ESE,113,0.0,0.0,99,0.00,,,0.00,,2013-03-02 17:01:00,
2013-03-02 09:11:00,45.0,45.0,30.22,ESE,113,0.0,0.0,99,0.00,,,0.00,,2013-03-02 17:11:00,
2013-03-02 09:21:00,46.0,46.0,30.22,SW,231,0.0,0.0,99,0.00,,,0.00,,2013-03-02 17:21:00,
2013-03-02 09:31:00,46.0,46.0,30.21,SW,231,0.0,0.0,99,0.00,,,0.00,,2013-03-02 17:31:00,
2013-03-02 09:41:00,46.0,46.0,30.21,SW,231,0.0,0.0,99,0.00,,,0.00,,2013-03-02 17:41:00,
2013-03-02 09:52:00,47.0,47.0,30.21,East,88,0.0,0.0,99,0.00,,,0.00,,2013-03-02 17:52:00,
2013-03-02 10:01:00,47.0,47.0,30.21,East,88,0.0,0.0,99,0.00,,,0.00,,2013-03-02 18:01:00,
2013-03-02 10:11:00,47.0,47.0,30.21,East,88,0.0,0.0,99,0.00,,,0.00,,2013-03-02 18:11:00,
2013-03-02 10:21:00,48.0,47.0,30.21,WSW,240,0.0,0.0,97,0.00,,,0.00,,2013-03-02 18:21:00,
2013-03-02 10:32:00,48.0,47.0,30.21,WSW,240,0.0,0.0,97,0.00,,,0.00,,2013-03-02 18:32:00,
2013-03-02 10:42:00,48.0,47.0,30.21,WSW,240,0.0,0.0,97,0.00,,,0.00,,2013-03-02 18:42:00,
2013-03-02 10:51:00,49.0,48.0,30.19,South,184,0.0,0.0,96,0.00,,,0.00,,2013-03-02 18:51:00,
2013-03-02 11:01:00,50.0,48.0,30.19,East,86,0.0,3.0,94,0.00,,,0.00,,2013-03-02 19:01:00,
2013-03-02 11:11:00,50.0,48.0,30.19,East,86,0.0,3.0,94,0.00,,,0.00,,2013-03-02 19:11:00,
2013-03-02 11:21:00,51.0,49.0,30.18,WSW,252,0.0,2.0,92,0.00,,,0.00,,2013-03-02 19:21:00,
2013-03-02 11:31:00,52.0,49.0,30.19,SW,221,0.0,2.0,90,0.00,,,0.00,,2013-03-02 19:31:00,
2013-03-02 11:42:00,52.0,49.0,30.19,SW,221,0.0,2.0,90,0.00,,,0.00,,2013-03-02 19:42:00,
2013-03-02 11:52:00,52.0,49.0,30.19,WSW,248,0.0,4.0,89,0.00,,,0.00,,2013-03-02 19:52:00,
2013-03-02 12:01:00,52.0,49.0,30.18,SW,226,0.0,4.0,88,0.00,,,0.00,,2013-03-02 20:01:00,
2013-03-02 12:11:00,52.0,49.0,30.18,SW,226,0.0,4.0,88,0.00,,,0.00,,2013-03-02 20:11:00,
2013-03-02 12:21:00,52.0,49.0,30.18,SSW,207,0.0,3.0,89,0.00,,,0.00,,2013-03-02 20:21:00,
2013-03-02 12:31:00,52.0,48.0,30.18,South,176,0.0,3.0,86,0.00,,,0.00,,2013-03-02 20:31:00,
2013-03-02 12:42:00,52.0,48.0,30.18,South,176,0.0,3.0,86,0.00,,,0.00,,2013-03-02 20:42:00,
2013-03-02 12:52:00,53.0,49.0,30.16,SW,224,0.0,6.0,85,0.00,,,0.00,,2013-03-02 20:52:00,
2013-03-02 13:02:00,54.0,49.0,30.16,SW,223,0.0,3.0,83,0.00,,,0.00,,2013-03-02 21:02:00,
2013-03-02 13:11:00,54.0,49.0,30.16,SW,223,0.0,3.0,83,0.00,,,0.00,,2013-03-02 21:11:00,
2013-03-02 13:21:00,54.0,49.0,30.16,ENE,70,0.0,4.0,83,0.00,,,0.00,,2013-03-02 21:21:00,
2013-03-02 13:31:00,53.0,49.0,30.16,SSE,166,0.0,3.0,85,0.00,,,0.00,,2013-03-02 21:31:00,
2013-03-02 13:42:00,53.0,49.0,30.16,SSE,166,0.0,3.0,85,0.00,,,0.00,,2013-03-02 21:42:00,
2013-03-02 13:52:00,53.0,49.0,30.14,West,267,0.0,5.0,86,0.00,,,0.00,,2013-03-02 21:52:00,
2013-03-02 14:01:00,53.0,48.0,30.14,SW,229,1.0,5.0,84,0.00,,,0.00,,2013-03-02 22:01:00,
2013-03-02 14:11:00,53.0,48.0,30.14,SW,229,1.0,5.0,84,0.00,,,0.00,,2013-03-02 22:11:00,
2013-03-02 14:21:00,52.0,48.0,30.14,NE,45,1.0,9.0,86,0.00,,,0.00,,2013-03-02 22:21:00,
2013-03-02 14:31:00,51.0,48.0,30.14,WSW,258,0.0,3.0,91,0.01,,,0.01,,2013-03-02 22:31:00,
2013-03-02 14:42:00,51.0,48.0,30.14,WSW,258,0.0,3.0,91,0.01,,,0.01,,2013-03-02 22:42:00,
2013-03-02 14:51:00,51.0,49.0,30.14,SW,235,0.0,1.0,94,0.04,,,0.04,,2013-03-02 22:51:00,
2013-03-02 15:01:00,50.0,49.0,30.14,SW,226,0.0,0.0,96,0.06,,,0.06,,2013-03-02 23:01:00,
2013-03-02 15:11:00,51.0,50.0,30.14,SW,228,1.0,6.0,95,0.06,,,0.06,,2013-03-02 23:11:00,
2013-03-02 15:21:00,51.0,50.0,30.14,SW,228,1.0,6.0,95,0.06,,,0.06,,2013-03-02 23:21:00,
2013-03-02 15:32:00,51.0,49.0,30.14,SSE,164,1.0,4.0,94,0.04,,,0.06,,2013-03-02 23:32:00,
2013-03-02 15:42:00,51.0,49.0,30.14,SSE,164,1.0,4.0,94,0.04,,,0.06,,2013-03-02 23:42:00,
2013-03-02 15:52:00,51.0,50.0,30.14,West,276,0.0,3.0,95,0.02,,,0.06,,2013-03-02 23:52:00,
2013-03-02 16:02:00,47.0,44.0,30.15,NW,316,4.0,20.0,90,0.00,,,0.06,,2013-03-03 00:02:00,
2013-03-02 16:11:00,47.0,44.0,30.15,NW,316,4.0,20.0,90,0.00,,,0.06,,2013-03-03 00:11:00,
2013-03-02 16:22:00,46.0,44.0,30.16,West,264,3.0,13.0,93,0.00,,,0.06,,2013-03-03 00:22:00,
2013-03-02 16:32:00,45.0,43.0,30.17,West,277,1.0,9.0,93,0.00,,,0.06,,2013-03-03 00:32:00,
2013-03-02 16:42:00,45.0,43.0,30.17,West,277,1.0,9.0,93,0.00,,,0.06,,2013-03-03 00:42:00,
2013-03-02 16:52:00,45.0,43.0,30.17,West,269,1.0,7.0,92,0.00,,,0.06,,2013-03-03 00:52:00,
2013-03-02 17:01:00,45.0,42.0,30.18,South,169,0.0,2.0,90,0.00,,,0.06,,2013-03-03 01:01:00,
2013-03-02 17:11:00,45.0,42.0,30.18,South,169,0.0,2.0,90,0.00,,,0.06,,2013-03-03 01:11:00,
2013-03-02 17:21:00,44.0,42.0,30.18,SW,229,0.0,5.0,91,0.00,,,0.06,,2013-03-03 01:21:00,
2013-03-02 17:31:00,44.0,42.0,30.18,WNW,288,1.0,8.0,92,0.00,,,0.06,,2013-03-03 01:31:00,
2013-03-02 17:41:00,44.0,42.0,30.18,WNW,288,1.0,8.0,92,0.00,,,0.06,,2013-03-03 01:41:00,
2013-03-02 17:52:00,44.0,42.0,30.19,West,278,1.0,4.0,92,0.00,,,0.06,,2013-03-03 01:52:00,
2013-03-02 18:01:00,43.0,41.0,30.19,WNW,300,1.0,5.0,91,0.00,,,0.06,,2013-03-03 02:01:00,
2013-03-02 18:11:00,43.0,41.0,30.19,WNW,300,1.0,5.0,91,0.00,,,0.06,,2013-03-03 02:11:00,
2013-03-02 18:21:00,43.0,41.0,30.20,WNW,288,0.0,4.0,91,0.00,,,0.06,,2013-03-03 02:21:00,
2013-03-02 18:31:00,43.0,41.0,30.20,SSW,203,0.0,2.0,92,0.00,,,0.06,,2013-03-03 02:31:00,
2013-03-02 18:41:00,43.0,41.0,30.20,SSW,203,0.0,2.0,92,0.00,,,0.06,,2013-03-03 02:41:00,
2013-03-02 18:52:00,43.0,41.0,30.20,NW,309,2.0,8.0,91,0.00,,,0.06,,2013-03-03 02:52:00,
2013-03-02 19:01:00,43.0,41.0,30.22,NW,304,0.0,5.0,91,0.00,,,0.06,,2013-03-03 03:01:00,
2013-03-02 19:11:00,43.0,41.0,30.22,NW,304,0.0,5.0,91,0.00,,,0.06,,2013-03-03 03:11:00,
2013-03-02 19:21:00,42.0,40.0,30.22,West,266,1.0,4.0,91,0.00,,,0.06,,2013-03-03 03:21:00,
2013-03-02 19:31:00,42.0,40.0,30.22,SW,234,0.0,2.0,92,0.00,,,0.06,,2013-03-03 03:31:00,
2013-03-02 19:41:00,42.0,40.0,30.22,SW,234,0.0,2.0,92,0.00,,,0.06,,2013-03-03 03:41:00,
2013-03-02 19:51:00,41.0,39.0,30.22,East,82,0.0,3.0,92,0.00,,,0.06,,2013-03-03 03:51:00,
2013-03-02 20:01:00,41.0,38.0,30.22,SW,215,0.0,4.0,89,0.00,,,0.06,,2013-03-03 04:01:00,
2013-03-02 20:11:00,41.0,38.0,30.22,SW,215,0.0,4.0,89,0.00,,,0.06,,2013-03-03 04:11:00,
2013-03-02 20:21:00,40.0,37.0,30.23,WNW,295,1.0,4.0,89,0.00,,,0.06,,2013-03-03 04:21:00,
2013-03-02 20:31:00,40.0,38.0,30.23,West,276,1.0,10.0,91,0.00,,,0.06,,2013-03-03 04:31:00,
2013-03-02 20:41:00,40.0,38.0,30.23,West,276,1.0,10.0,91,0.00,,,0.06,,2013-03-03 04:41:00,
2013-03-02 20:51:00,40.0,38.0,30.24,WNW,300,2.0,6.0,92,0.00,,,0.06,,2013-03-03 04:51:00,
2013-03-02 21:01:00,40.0,38.0,30.24,WNW,285,3.0,7.0,91,0.00,,,0.06,,2013-03-03 05:01:00,
2013-03-02 21:11:00,40.0,38.0,30.24,WNW,285,3.0,7.0,91,0.00,,,0.06,,2013-03-03 05:11:00,
2013-03-02 21:21:00,40.0,37.0,30.24,WNW,294,2.0,5.0,90,0.00,,,0.06,,2013-03-03 05:21:00,
2013-03-02 21:32:00,40.0,37.0,30.24,NW,305,2.0,6.0,90,0.00,,,0.06,,2013-03-03 05:32:00,
2013-03-02 21:42:00,40.0,37.0,30.24,NW,305,2.0,6.0,90,0.00,,,0.06,,2013-03-03 05:42:00,
2013-03-02 21:52:00,39.0,36.0,30.24,WNW,293,2.0,8.0,90,0.00,,,0.06,,2013-03-03 05:52:00,
2013-03-02 22:01:00,39.0,37.0,30.25,WNW,296,1.0,4.0,92,0.00,,,0.06,,2013-03-03 06:01:00,
2013-03-02 22:11:00,39.0,37.0,30.25,WNW,296,1.0,4.0,92,0.00,,,0.06,,2013-03-03 06:11:00,
2013-03-02 22:21:00,38.0,36.0,30.25,WNW,290,0.0,1.0,94,0.00,,,0.06,,2013-03-03 06:21:00,
2013-03-02 22:31:00,37.0,36.0,30.25,West,272,0.0,0.0,95,0.00,,,0.06,,2013-03-03 06:31:00,
2013-03-02 22:42:00,37.0,36.0,30.25,West,272,0.0,0.0,95,0.00,,,0.06,,2013-03-03 06:42:00,
2013-03-02 22:51:00,37.0,36.0,30.25,West,274,0.0,0.0,96,0.00,,,0.06,,2013-03-03 06:51:00,
2013-03-02 23:01:00,35.0,34.0,30.26,NE,53,0.0,0.0,96,0.00,,,0.06,,2013-03-03 07:01:00,
2013-03-02 23:11:00,35.0,34.0,30.26,NE,53,0.0,0.0,96,0.00,,,0.06,,2013-03-03 07:11:00,
2013-03-02 23:21:00,35.0,34.0,30.26,WNW,289,0.0,2.0,97,0.00,,,0.06,,2013-03-03 07:21:00,
2013-03-02 23:31:00,35.0,34.0,30.26,West,263,0.0,1.0,97,0.00,,,0.06,,2013-03-03 07:31:00,
2013-03-02 23:42:00,35.0,34.0,30.26,West,263,0.0,1.0,97,0.00,,,0.06,,2013-03-03 07:42:00,
2013-03-02 23:51:00,35.0,34.0,30.26,West,278,0.0,0.0,97,0.00,,,0.06,,2013-03-03 07:51:00,